User: anonymous   Login
Location: Caualo
(45.5667°N, 10.8667°E)
Time: 02:47:20
(UTC+00:00)
Language:

NPP - Orbit

View from above orbital plane
View from above orbital plane
View from above satellite
View from above satellite

Ground track
Ground track

The orbit data is extracted from the following two-line orbital elements,

1 37849U 11061A   20221.56952223 -.00000003 +00000-0 +19368-4 0  9996
2 37849 098.7375 158.7981 0001577 089.8405 014.3698 14.19540943455022
Epoch (UTC): 08 August 2020 13:40:06
Eccentricity: 0.0001577
inclination: 98.7375°
perigee height: 826 km
apogee height: 828 km
right ascension of ascending node: 158.7981°
argument of perigee: 89.8405°
revolutions per day: 14.19540943
mean anomaly at epoch: 14.3698°
orbit number at epoch: 45502

The dashed part of the orbit path shows where the satellite is in the earth's shadow,  

DLR